{"data":{"norad_id":68982,"intl_designator":"2026-100C","name":"IRIDE-MS2-HEO-10","alt_names":[],"object_type":"PAYLOAD","status":"ACTIVE","operator":null,"country":"IT","launch_date":"2026-05-03","launch_site_code":"AFWTR","launch_vehicle":null,"mission":null,"orbit_class":"UNKNOWN","rcs_meters":null,"size_class":null,"mass_kg":null,"dimensions":null,"purposes":[],"wikipedia_slug":null,"has_3d_model":false,"image_url":null,"decayed_at":null,"tle_current":{"epoch":"2026-05-25T03:23:03.887808Z","epoch_age_seconds":66025,"freshness":"FRESH","line1":"1 68982U 26100C   26145.14101722  .00001355  00000+0  14195-3 0  9994","line2":"2 68982  97.7360  43.0042 0002626 214.8735 145.2312 14.91183487  3261","mean_motion":14.91183487,"eccentricity":0.0002626,"inclination_deg":97.736,"raan_deg":43.0042,"arg_perigee_deg":214.8735,"mean_anomaly_deg":145.2312,"bstar":0.00014195,"rev_number":326,"period_min":96.567592959135,"perigee_km":592.41316075718,"apogee_km":596.07505531512,"semimajor_km":6972.3811080361,"source":"CELESTRAK","updated_at":"2026-05-25T13:38:08.807012Z"}}}